San Antonio, TX

12:53 AM CDT on April 22, 2018 (GMT -0500)
San Antonio International

Weather History for KSAT - January, 2014

Change the Weather History Date:

Saturday, January 18, 2014

  Actual Average Record
Temperature  
Mean Temperature 52 °F 52 °F  
Max Temperature 70 °F 63 °F 85 °F (1938)
Min Temperature 34 °F 41 °F 11 °F (1930)
Degree Days  
Heating Degree Days 13 13  
Month to date heating degree days 238 251  
Since 1 July heating degree days 878 853  
Cooling Degree Days 0 0  
Month to date cooling degree days 1 0  
Year to date cooling degree days 1 0  
Growing Degree Days 2 (Base 50)    
Moisture  
Dew Point 35 °F    
Average Humidity 55    
Maximum Humidity 77    
Minimum Humidity 33    
Precipitation  
Precipitation 0.00 in 0.05 in 2.72 in (1968)
Month to date precipitation 0.12 0.96  
Year to date precipitation 0.12 0.96  
Snow  
Snow 0.00 in - - ()
Month to date snowfall 0.0  
Since 1 July snowfall 0.0  
Snow Depth 0.00 in    
Sea Level Pressure  
Sea Level Pressure 30.16 in    
Wind  
Wind Speed 6 mph (WNW)    
Max Wind Speed 17 mph    
Max Gust Speed 21 mph    
Visibility 10 miles    
Events      
T = Trace of Precipitation, MM = Missing Value Source: NWS Daily Summary

Daily Weather History Graph

Daily Weather History Graph

Search for Another Location

Airport or City:

Astronomy

Jan. 18, 2014 Rise Set
Actual Time 7:28 AM CST 5:59 PM CST
Civil Twilight 7:03 AM CST 6:25 PM CST
Nautical Twilight 6:34 AM CST 6:54 PM CST
Astronomical Twilight 6:05 AM CST 7:23 PM CST
Moon 8:27 PM CST (1/18) 8:43 AM CST (1/18)
Length of Visible Light 11h 22m
Length of Day
10h 31m
Waning Gibbous, 94% of the Moon is Illuminated
Jan 18
Waning Gibbous
Jan 23
Last Quarter
Jan 30
New
Feb 6
First Quarter
Feb 14
Full

Hourly Weather History & Observations

Time (CST) Temp. Windchill Dew Point Humidity Pressure Visibility Wind Dir Wind Speed Gust Speed Precip Events Conditions
12:51 AM 41.0 °F 39.0 °F 26.1 °F 55% 30.23 in 10.0 mi NW 3.5 mph - N/A   Clear
1:51 AM 39.0 °F 36.8 °F 26.1 °F 60% 30.23 in 10.0 mi NW 3.5 mph - N/A   Clear
2:51 AM 37.0 °F 34.5 °F 26.1 °F 65% 30.22 in 10.0 mi NW 3.5 mph - N/A   Clear
3:51 AM 37.9 °F 34.4 °F 26.1 °F 62% 30.20 in 10.0 mi WNW 4.6 mph - N/A   Clear
4:51 AM 36.0 °F 32.1 °F 25.0 °F 64% 30.19 in 10.0 mi WNW 4.6 mph - 0.00 in   Clear
5:51 AM 36.0 °F 30.3 °F 25.0 °F 64% 30.19 in 10.0 mi WNW 6.9 mph - N/A   Clear
6:51 AM 36.0 °F 31.1 °F 25.0 °F 64% 30.19 in 10.0 mi WNW 5.8 mph - N/A   Clear
7:51 AM 37.0 °F 34.5 °F 26.1 °F 65% 30.19 in 10.0 mi NW 3.5 mph - N/A   Clear
8:51 AM 45.0 °F 43.5 °F 28.0 °F 52% 30.20 in 10.0 mi NNW 3.5 mph - N/A   Clear
9:51 AM 54.0 °F - 27.0 °F 35% 30.22 in 10.0 mi Calm Calm - N/A   Clear
10:51 AM 59.0 °F - 30.0 °F 33% 30.21 in 10.0 mi SE 5.8 mph - N/A   Partly Cloudy
11:51 AM 64.0 °F - 37.9 °F 38% 30.18 in 10.0 mi South 10.4 mph - N/A   Partly Cloudy
12:51 PM 66.0 °F - 41.0 °F 40% 30.14 in 10.0 mi SSW 10.4 mph - N/A   Scattered Clouds
1:51 PM 68.0 °F - 41.0 °F 37% 30.10 in 10.0 mi SW 9.2 mph 17.3 mph N/A   Clear
2:51 PM 69.1 °F - 41.0 °F 36% 30.08 in 10.0 mi SSW 13.8 mph 19.6 mph N/A   Clear
3:51 PM 70.0 °F - 42.1 °F 36% 30.08 in 10.0 mi SW 11.5 mph - N/A   Clear
4:51 PM 70.0 °F - 42.1 °F 36% 30.08 in 10.0 mi West 8.1 mph - N/A   Clear
5:51 PM 66.9 °F - 42.1 °F 40% 30.09 in 10.0 mi WSW 3.5 mph - N/A   Clear
6:51 PM 62.1 °F - 42.1 °F 48% 30.11 in 10.0 mi WNW 3.5 mph - N/A   Clear
7:51 PM 55.9 °F - 43.0 °F 62% 30.13 in 10.0 mi WNW 5.8 mph - N/A   Clear
8:51 PM 54.0 °F - 42.1 °F 64% 30.14 in 10.0 mi NNW 3.5 mph - N/A   Clear
9:51 PM 51.1 °F - 41.0 °F 68% 30.15 in 10.0 mi WNW 6.9 mph - N/A   Clear
10:51 PM 48.9 °F - 41.0 °F 74% 30.16 in 10.0 mi NW 5.8 mph - N/A   Clear
11:51 PM 48.0 °F - 39.9 °F 74% 30.17 in 10.0 mi NW 4.6 mph - N/A   Clear